[[{"header":{"parameterUnit":"m.s-1","parameterCategory":1,"la1":30.2991,"la2":30.254,"lo1":-89.0895,"lo2":-89.0444,"dy":0.0017,"dx":0.0017,"nx":28,"ny":28,"refTime":"2025-04-16T21:00:00:Z","depth":0,"parameterNumber":2,"parameterNumberName":"U-component_of_WINDS"},"data":[0,0,0,0,0,0,0,0,0,0,0,0,0,0,0,0,0,0,0,0,0,0,0,0,0,0,0,0,0,0,0,0,0,0,0,0,0,0,0,0,0,0,0,0,0,0,0,0,0,0,0,0,0,0,0,0,0,0,0.1892,0.1892,0,0.1874,0.1874,0.1874,0.1853,0.1852,0.1852,0.1852,0.1833,0.1833,0.1833,0,0,0,0,0,0,0,0,0,0,0,0,0,0.1906,0.1906,0.1892,0.1892,0.1891,0.1874,0.1874,0.1874,0.1853,0.1852,0.1852,0.1852,0.1833,0.1833,0.1833,0,0,0,0,0,0,0,0,0,0,0,0,0,0.1895,0.1906,0.1892,0.1879,0.1878,0.1874,0.1874,0.1874,0.1853,0.1852,0.1852,0.1851,0.1833,0.1833,0.1833,0.1841,0,0,0.1832,0.1832,0,0,0,0,0,0,0,0,0.1896,0.1895,0.1881,0.188,0.1878,0.1865,0.1872,0.1862,0.1853,0.1862,0.1852,0.1851,0.1844,0.1843,0.1841,0.184,0.1839,0.1832,0.1832,0.1832,0.1831,0,0,0,0,0,0,0,0.1897,0.1895,0.1885,0.1881,0.1879,0.1873,0.1871,0.187,0.1856,0.1861,0.186,0.1858,0.1843,0.1841,0.184,0.1839,0.1832,0.1832,0.1831,0.1831,0.1841,0.1841,0,0,0,0,0,0,0.19,0.1896,0.1885,0.1884,0.1886,0.1874,0.1871,0.187,0.1856,0.1853,0.1858,0.1857,0.1842,0.184,0.1839,0.1846,0.1832,0.1831,0.1831,0.1841,0.1841,0.1842,0,0,0,0,0,0,0.19,0.1899,0.1886,0.189,0.1888,0.1874,0.1872,0.187,0.1867,0.1854,0.1851,0.1859,0.1841,0.184,0.184,0.1845,0.1831,0.1831,0.184,0.1841,0.1841,0.186,0,0,0,0,0,0,0.19,0.1899,0.1902,0.189,0.1888,0.1887,0.1873,0.187,0.1867,0.1865,0.1853,0.1851,0.1841,0.184,0.184,0.1844,0.1831,0.184,0.184,0.1841,0.1859,0.1862,0.1864,0,0,0,0,0,0.1901,0.1909,0.1903,0.1901,0.1891,0.1888,0.1886,0.1875,0.1868,0.187,0.1861,0.1851,0.1845,0.1841,0.184,0.1844,0.1839,0.184,0.1841,0.1858,0.1861,0.1864,0,0,0,0,0,0,0.1922,0.1907,0.19,0.1904,0.1897,0.1884,0.1887,0.1878,0.1874,0.1872,0.1857,0.1855,0.1857,0.1851,0.1846,0.185,0.184,0.1841,0.1854,0.1857,0.1859,0.186,0.183,0,0,0,0,0,0.1927,0.1926,0.1913,0.1917,0.1914,0.1902,0.19,0.1891,0.1883,0.1881,0.1872,0.1865,0.1861,0.1859,0.1854,0.1859,0.1855,0.1861,0.1863,0.1865,0.1866,0.1866,0.1868,0.1845,0.1845,0.1845,0,0,0.1938,0.1929,0.1929,0.1921,0.1915,0.1913,0.1899,0.1899,0.1897,0.188,0.188,0.1873,0.1864,0.1866,0.1866,0.1861,0.1872,0.1867,0.1868,0.1868,0.1867,0.1869,0.1871,0.1846,0.1845,0.1845,0,0,0.1956,0.195,0.1952,0.1946,0.1937,0.1928,0.1929,0.1917,0.1912,0.1911,0.1898,0.1895,0.189,0.1883,0.1879,0.1893,0.1884,0.1893,0.1904,0.1904,0.1906,0.1907,0.1911,0.1913,0.1893,0.1893,0.1893,0,0.197,0.1967,0.1955,0.1954,0.195,0.1935,0.1937,0.1932,0.1922,0.1919,0.1913,0.1905,0.1898,0.1897,0.19,0.1898,0.1897,0.1893,0.1907,0.1908,0.1909,0.1912,0.1914,0.1894,0.1894,0.1894,0.1894,0,0.1984,0.1982,0.1985,0.1975,0.1972,0.1973,0.196,0.1958,0.1949,0.1941,0.1939,0.193,0.1923,0.1923,0.1915,0.192,0.1917,0.1909,0.1899,0.1913,0.1915,0.1917,0.1896,0.1896,0.1895,0.1895,0,0,0.2014,0.1997,0.1998,0.1993,0.1981,0.1979,0.1979,0.1972,0.197,0.1963,0.1961,0.1956,0.1949,0.1944,0.1935,0.1936,0.1945,0.1927,0.1927,0.193,0.1949,0.1954,0.1956,0.1939,0.1939,0.194,0.1949,0,0.2029,0.2027,0.2016,0.2017,0.2014,0.1999,0.1999,0.1991,0.1983,0.1979,0.197,0.1966,0.1957,0.1954,0.1954,0.1944,0.1949,0.1944,0.1936,0.1936,0.1938,0.1958,0.1963,0.1973,0.1951,0.1951,0.1951,0,0.2046,0.2039,0.204,0.2027,0.2026,0.2025,0.2017,0.2014,0.2005,0.1999,0.1993,0.1983,0.1981,0.1972,0.1968,0.1964,0.1961,0.1955,0.1956,0.1954,0.1944,0.1955,0.1976,0.1977,0.1953,0.1953,0.1952,0,0.2066,0.2058,0.2057,0.2053,0.2038,0.2038,0.2032,0.2022,0.2018,0.2011,0.2008,0.2001,0.1997,0.1991,0.1979,0.1974,0.1976,0.1966,0.197,0.197,0.197,0.197,0.199,0.197,0.197,0.197,0.197,0,0.2082,0.2083,0.2065,0.2065,0.2065,0.2051,0.2051,0.2044,0.2035,0.2032,0.2019,0.2017,0.2001,0.1997,0.1987,0.1984,0.1983,0.1978,0.1975,0.1978,0.1978,0.1975,0.1973,0.197,0.197,0.197,0.197,0,0.2104,0.2093,0.209,0.2076,0.2073,0.2073,0.2061,0.2059,0.2051,0.2047,0.2045,0.2031,0.2025,0.2012,0.2003,0.1996,0.1995,0.1991,0.1998,0.1996,0.2,0.2,0.2017,0.2018,0.1999,0.1999,0.2,0,0.2115,0.2115,0.2101,0.2098,0.2092,0.2088,0.2083,0.207,0.2066,0.2055,0.2054,0.2047,0.204,0.2031,0.202,0.2012,0.2007,0.2014,0.2006,0.2008,0.2005,0.2005,0.2004,0.2015,0.2015,0.2016,0.2016,0,0.2134,0.2128,0.2123,0.2115,0.211,0.2104,0.2096,0.2095,0.2079,0.2075,0.2069,0.2064,0.2054,0.2046,0.2037,0.203,0.202,0.2018,0.2019,0.2021,0.2025,0.2022,0.2002,0.2018,0.2018,0.2018,0.2017,0.2017,0.215,0.2149,0.2138,0.2132,0.2125,0.2118,0.2116,0.2106,0.2101,0.2091,0.2084,0.2078,0.2067,0.2053,0.2047,0.2041,0.2037,0.2037,0.2037,0.2037,0.2038,0.2027,0.204,0.204,0.204,0.204,0.2039,0,0.2167,0.216,0.2155,0.2144,0.2139,0.2131,0.2122,0.2118,0.2113,0.2104,0.2098,0.209,0.2082,0.207,0.2061,0.2059,0.2054,0.2057,0.2057,0.2055,0.2043,0.2043,0.2061,0.2061,0.2061,0.2061,0.2061,0.2061,0.2176,0.2173,0.2166,0.2159,0.2151,0.2145,0.2141,0.2134,0.2127,0.2118,0.2112,0.2104,0.2093,0.2084,0.2076,0.2073,0.207,0.2074,0.2069,0.2058,0.2056,0.2054,0.2054,0.2074,0.2074,0.2081,0.2081,0.2081]},{"header":{"parameterUnit":"m.s-1","parameterCategory":1,"la1":30.2991,"la2":30.254,"lo1":-89.0895,"lo2":-89.0444,"dy":0.0017,"dx":0.0017,"nx":28,"ny":28,"refTime":"2025-04-16T21:00:00:Z","depth":0,"parameterNumber":3,"parameterNumberName":"V-component_of_WINDS"},"data":[0,0,0,0,0,0,0,0,0,0,0,0,0,0,0,0,0,0,0,0,0,0,0,0,0,0,0,0,0,0,0,0,0,0,0,0,0,0,0,0,0,0,0,0,0,0,0,0,0,0,0,0,0,0,0,0,0,0,2.0038,2.0037,0,2.0007,2.0007,2.0007,1.9939,1.9937,1.9936,1.9934,1.9902,1.9903,1.9903,0,0,0,0,0,0,0,0,0,0,0,0,0,2.0034,2.0034,2.0038,2.0037,2.0037,2.0007,2.0007,2.0007,1.9939,1.9937,1.9935,1.9934,1.9902,1.9903,1.9903,0,0,0,0,0,0,0,0,0,0,0,0,0,2.0023,2.0034,2.0038,2.0,1.9996,2.0007,2.0007,2.0006,1.9939,1.9937,1.9935,1.9933,1.9902,1.9903,1.9903,1.9949,0,0,1.9905,1.9905,0,0,0,0,0,0,0,0,2.0023,2.0023,2.0006,2.0002,1.9998,1.9975,1.9994,1.9987,1.994,1.9961,1.9934,1.9932,1.9928,1.9926,1.9925,1.9947,1.9946,1.9905,1.9906,1.9906,1.9906,0,0,0,0,0,0,0,2.0024,2.0024,2.0026,2.0006,2.0001,1.9983,1.9979,1.9992,1.9956,1.9959,1.9954,1.9951,1.9925,1.9925,1.9924,1.9946,1.9905,1.9906,1.9906,1.9906,1.9999,2.0001,0,0,0,0,0,0,2.0031,2.0025,2.0027,2.0025,2.0006,1.9985,1.998,1.9984,1.9956,1.995,1.9953,1.9948,1.9925,1.9923,1.9922,1.9971,1.9906,1.9907,1.9907,1.9997,2.0,2.0002,0,0,0,0,0,0,2.0031,2.0032,2.0028,2.0023,2.0022,1.9987,1.9992,1.9985,1.9984,1.9952,1.9945,1.9959,1.9923,1.9922,1.9942,1.9969,1.9907,1.9907,1.9995,1.9998,2.0001,2.0071,0,0,0,0,0,0,2.0031,2.0032,2.005,2.0024,2.0022,2.0049,1.9994,1.9986,1.9985,1.9979,1.9955,1.995,1.9921,1.9941,1.9943,1.9969,1.9908,1.9992,1.9996,2.0,2.0066,2.0076,2.0085,0,0,0,0,0,2.0031,2.0072,2.0052,2.0052,2.0044,2.0051,2.005,2.0016,1.9988,2.0005,1.9983,1.995,1.9966,1.9944,1.9945,1.9972,1.999,1.9995,2.0,2.0062,2.0075,2.0085,0,0,0,0,0,0,2.0103,2.0068,2.0045,2.0079,2.0068,2.004,2.006,2.0031,2.0028,2.0022,1.9981,1.9976,2.0001,1.9989,1.9965,2.0013,1.9973,1.9978,2.002,2.0031,2.0041,2.0043,1.9908,0,0,0,0,0,2.0122,2.0132,2.0101,2.0133,2.0129,2.0096,2.0098,2.0073,2.006,2.0055,2.0035,2.0024,2.0025,2.0028,2.0028,2.0064,2.0056,2.0083,2.0092,2.01,2.0105,2.0119,2.013,2.0017,2.0017,2.0017,0,0,2.0163,2.0145,2.0154,2.0147,2.0136,2.0145,2.0092,2.0105,2.0111,2.0057,2.0074,2.0059,2.0043,2.0071,2.0082,2.0061,2.0134,2.0106,2.0113,2.0113,2.0125,2.0136,2.0145,2.0021,2.002,2.0019,0,0,2.0241,2.023,2.0254,2.0244,2.0227,2.0204,2.021,2.0185,2.0173,2.0189,2.0148,2.0154,2.0159,2.0148,2.0144,2.0214,2.0182,2.0215,2.0264,2.0279,2.0287,2.0295,2.0318,2.0326,2.022,2.022,2.022,0,2.0294,2.0307,2.027,2.0285,2.0281,2.0232,2.0255,2.0247,2.0231,2.023,2.0206,2.0209,2.0196,2.0218,2.0235,2.0234,2.0237,2.0218,2.0289,2.0296,2.0303,2.0324,2.0333,2.0224,2.0224,2.0223,2.0223,0,2.0371,2.038,2.0401,2.0386,2.0386,2.0405,2.0369,2.0373,2.0347,2.0326,2.0342,2.0323,2.0317,2.0321,2.0297,2.0339,2.0326,2.0297,2.0256,2.0318,2.0337,2.0345,2.023,2.0229,2.0227,2.0226,0,0,2.0495,2.0457,2.0466,2.0457,2.0433,2.0439,2.0454,2.0448,2.045,2.0441,2.0451,2.0455,2.0426,2.0421,2.0395,2.0408,2.0461,2.0376,2.0375,2.0391,2.0503,2.0524,2.0534,2.044,2.0442,2.0443,2.0504,0,2.0566,2.059,2.0556,2.0587,2.0593,2.0545,2.0558,2.0544,2.0524,2.0525,2.0503,2.0505,2.0469,2.0465,2.0476,2.0453,2.0483,2.0448,2.0447,2.0447,2.0451,2.0545,2.0568,2.0626,2.0511,2.0512,2.0513,0,2.0653,2.0646,2.0678,2.0649,2.065,2.0663,2.0652,2.0655,2.0637,2.0621,2.0614,2.0582,2.0592,2.0553,2.0565,2.0542,2.054,2.0528,2.0529,2.0527,2.0484,2.0543,2.0645,2.0653,2.0525,2.0524,2.0523,0,2.0737,2.0736,2.0753,2.0748,2.0716,2.0725,2.0712,2.0692,2.0689,2.068,2.0677,2.067,2.0665,2.0659,2.0625,2.06,2.064,2.0599,2.0626,2.0626,2.0636,2.0636,2.0737,2.0637,2.0637,2.0637,2.0637,0,2.082,2.084,2.079,2.0801,2.0822,2.0782,2.0803,2.0785,2.0767,2.0772,2.073,2.0735,2.0691,2.0691,2.0664,2.0677,2.0676,2.0661,2.0654,2.0664,2.0666,2.0661,2.0656,2.0639,2.0639,2.0638,2.0638,0,2.0917,2.0885,2.09,2.0868,2.086,2.0876,2.0848,2.0855,2.0832,2.0838,2.0838,2.08,2.0798,2.0763,2.0753,2.0735,2.0757,2.0743,2.0764,2.0758,2.0786,2.0783,2.0887,2.0897,2.0793,2.0794,2.0795,0,2.0971,2.0986,2.0954,2.0954,2.0943,2.0944,2.094,2.0901,2.0898,2.0877,2.0887,2.0881,2.0873,2.0871,2.0842,2.0834,2.0817,2.0854,2.0816,2.0825,2.0815,2.0814,2.0814,2.0862,2.0863,2.0865,2.0865,0,2.107,2.1052,2.1049,2.1039,2.1036,2.1027,2.1014,2.1017,2.0972,2.0972,2.0968,2.0963,2.0951,2.0945,2.093,2.0915,2.0882,2.0878,2.0883,2.0893,2.0903,2.0896,2.0784,2.0875,2.0874,2.0874,2.0873,2.0873,2.1146,2.1155,2.1133,2.113,2.1116,2.1105,2.1109,2.1085,2.1082,2.1069,2.1046,2.1045,2.1023,2.1001,2.0988,2.0986,2.0966,2.0975,2.0977,2.0979,2.0983,2.0905,2.0983,2.0983,2.0982,2.0982,2.0982,0,2.124,2.1223,2.122,2.1204,2.12,2.117,2.1154,2.1153,2.1152,2.1135,2.1128,2.1122,2.1115,2.1085,2.1074,2.1077,2.1062,2.1076,2.1074,2.1071,2.1003,2.0998,2.1088,2.1088,2.1088,2.1088,2.1088,2.1088,2.1289,2.1302,2.1281,2.1286,2.1268,2.1267,2.126,2.1248,2.1234,2.1229,2.1223,2.1203,2.118,2.1166,2.1157,2.1148,2.1145,2.1163,2.1149,2.1086,2.1076,2.1066,2.1061,2.1164,2.1164,2.1217,2.1218,2.1218]}]]